This is the latest recevied weather packets stored in our database for station/object WA6ODQ-13. If no packets are shown the sender has not sent any weather packets the latest 10 day(s).
| Time | Temp. | Humidity | Pressure | Rain* | Wind** | Luminosity | Snow |
|---|---|---|---|---|---|---|---|
| 1787870145 | 35° C | 33% | 1010.9 hPa | 0 mm | - | 354 W/m² | - |
| 1787869845 | 35° C | 33% | 1010.8 hPa | 0 mm | - | 356 W/m² | - |
| 1787869544 | 35° C | 34% | 1011.1 hPa | 0 mm | - | 341 W/m² | - |
| 1787869239 | 34.44° C | 33% | 1011.1 hPa | 0 mm | - | 270 W/m² | - |
| 1787868938 | 35° C | 32% | 1011 hPa | 0 mm | - | 277 W/m² | - |
| 1787868637 | 35° C | 34% | 1011 hPa | 0 mm | - | 312 W/m² | - |
| 1787868336 | 35° C | 34% | 1011 hPa | 0 mm | - | 416 W/m² | - |
| 1787868031 | 34.44° C | 34% | 1011 hPa | 0 mm | - | 464 W/m² | - |
| 1787867726 | 34.44° C | 35% | 1011.2 hPa | 0 mm | - | 249 W/m² | - |
| 1787867421 | 35° C | 34% | 1011.3 hPa | 0 mm | - | 295 W/m² | - |
| 1787867117 | 34.44° C | 35% | 1011.4 hPa | 0 mm | - | 510 W/m² | - |
| 1787866812 | 34.44° C | 34% | 1011.4 hPa | 0 mm | - | 312 W/m² | - |
| 1787866507 | 34.44° C | 34% | 1011.5 hPa | 0 mm | - | 336 W/m² | - |
| 1787866204 | 34.44° C | 35% | 1011.6 hPa | 0 mm | - | 464 W/m² | - |
| 1787865895 | 33.89° C | 35% | 1011.4 hPa | 0 mm | - | 519 W/m² | - |
| 1787865590 | 34.44° C | 34% | 1011.3 hPa | 0 mm | - | 281 W/m² | - |
| 1787865284 | 34.44° C | 35% | 1011.7 hPa | 0 mm | - | 284 W/m² | - |
| 1787864980 | 34.44° C | 34% | 1011.6 hPa | 0 mm | - | 807 W/m² | - |
| 1787864676 | 33.89° C | 36% | 1011.6 hPa | 0 mm | - | 651 W/m² | - |
| 1787864375 | 33.89° C | 35% | 1011.7 hPa | 0 mm | - | 300 W/m² | - |
| 1787864074 | 33.89° C | 34% | 1011.7 hPa | 0 mm | - | 583 W/m² | - |
| 1787863773 | 33.89° C | 35% | 1011.7 hPa | 0 mm | - | 407 W/m² | - |
| 1787863472 | 33.89° C | 36% | 1011.8 hPa | 0 mm | - | 431 W/m² | - |
| 1787863168 | 33.33° C | 36% | 1011.9 hPa | 0 mm | - | 600 W/m² | - |
| 1787862864 | 33.33° C | 36% | 1011.7 hPa | 0 mm | - | 469 W/m² | - |
* Rain latest hour (hover to see other rain measurements)
** Current wind speed in m/s (hover to see current wind gust speed)